AirNav   Air Wisconsin pilot careers
 
 588 users online  

C59 Lake Lawn Airport
Delavan, Wisconsin, USA

GOING TO DELAVAN?


FAA INFORMATION EFFECTIVE 03 JANUARY 2019

Location

FAA Identifier: C59
Lat/Long: 42-38-02.8540N / 088-36-04.0650W
42-38.047567N / 088-36.067750W
42.6341261 / -88.6011292
(estimated)
Elevation: 981 ft. / 299 m (estimated)
Variation: 02W (2005)
From city: 2 miles E of DELAVAN, WI
Time zone: UTC -6 (UTC -5 during Daylight Saving Time)
Zip code: 53115

Airport Operations

Airport use: Open to the public
Activation date: 04/1974
Control tower: no
ARTCC: CHICAGO CENTER
FSS: GREEN BAY FLIGHT SERVICE STATION
NOTAMs facility: GRB (NOTAM-D service available)
Attendance: UNATNDD
Wind indicator: yes
Segmented circle: no

Airport Communications

CTAF: 122.9
ROCKFORD APPROACH: 121.0 [0800-1600 MON-FRI; EXCP HOLS]
ROCKFORD DEPARTURE: 121.0 [0800-1600 MON-FRI; EXCP HOLS]
WX AWOS-3 at BUU (14 nm E): 114.5 (262-757-0907)
WX AWOS-3PT at 57C (14 nm NE): 118.125 (262-642-1845)
WX AWOS-3 at JVL (19 nm W): PHONE 608-758-1723

Nearby radio navigation aids

VOR radial/distance  VOR name  Freq  Var
JVLr075/22.7JANESVILLE VOR/DME114.3003E
BAEr204/32.1BADGER VOR/DME116.4002E
RFDr046/36.1ROCKFORD VOR/DME110.8001E
OBKr313/38.0NORTHBROOK VOR/DME113.0002W

 
NDB name  Hdg/Dist  Freq  Var  ID
LAKE LAWN187/3.940402WLVV .-.. ...- ...-
ROCK RIVER171/32.837101WRYV .-. -.-- ...-

Airport Services

Parking: tiedowns
Airframe service: NONE
Powerplant service: NONE
Bottled oxygen: NONE
Bulk oxygen: NONE

Runway Information

Runway 18/36

Dimensions: 4423 x 80 ft. / 1348 x 24 m
Surface: asphalt/L
RY 18/36 NUMEROUS LARGE CRACKS & VEGETATION GROWING THROUGH PAVEMENT ENTIRE LENGTH.
Runway edge markings: RWY MARKINGS FADED.
RUNWAY 18  RUNWAY 36
Latitude: 42-38.410683N42-37.685200N
Longitude: 088-36.025783W088-36.108883W
Elevation: 979.0 ft.967.0 ft.
Gradient: 0.3%0.3%
Traffic pattern: leftleft
Runway heading: 187 magnetic, 185 true007 magnetic, 005 true
Displaced threshold: 320 ft.300 ft.
Markings: nonprecision, in poor conditionnonprecision, in poor condition
Runway end identifier lights: yes
OTS INDEFLY.
Touchdown point: yes, no lightsyes, no lights
Obstructions: 35 ft. tree, 200 ft. from runway, 60 ft. right of centerline
+4 FT FENCE 12 FT FM THLD; RD 40 FT FM THLD; +4 FT FENCE AT THLD 120 FT L.
50 ft. tree, 280 ft. from runway, 120 ft. left of centerline, 1:1 slope to clear
RD 50 FT FM THLD.

Airport Ownership and Management from official FAA records

Ownership: Privately-owned
Owner: DELEVAN LAKE LAWN MANAGEMENT
2400 EAST GENEVA ST
DELAVAN, WI 53115
Phone 262-728-7950
Manager: DANIEL LYNG
2400 EAST GENEVA ST
DELAVAN, WI 53115
Phone (262) 725-9127

Airport Operational Statistics

Aircraft operations: avg 50/week *
77% transient general aviation
19% local general aviation
2% military
2% air taxi
* for 12-month period ending 01 June 2017

Additional Remarks

ARPT CLSD FOR NIGHT OPNS.
LOW WING ACFT AVOID SOUTH TWY, 25 FT FM TWY CENTERLINE TO 3 FT FENCE.

Instrument Procedures

There are no published instrument procedures at C59.

Some nearby airports with instrument procedures:

C02 - Grand Geneva Resort Airport (9 nm E)
KBUU - Burlington Municipal Airport (14 nm E)
57C - East Troy Municipal Airport (14 nm NE)
10C - Galt Field Airport (17 nm SE)
44C - Beloit Airport (18 nm SW)
KJVL - Southern Wisconsin Regional Airport (19 nm W)
 
Loc | Ops | Rwys | IFR | FBO | Links
Com | Nav | Svcs | Stats | Notes
Area around C59 (Lake Lawn Airport)
 
Road maps at: MapQuest Bing Google
 
Aerial photo
WARNING: Photo may not be current or correct
Aerial photo of C59 (Lake Lawn Airport)
Photo by Robert A. Kadera
Photo taken 16-May-2007

Do you have a better or more recent aerial photo of Lake Lawn Airport that you would like to share? If so, please send us your photo.

 
Sectional chart

 
Airport distance calculator
Flying to Lake Lawn Airport? Find the distance to fly.

From to C59

Sunrise and sunset
Times for 23-Jan-2019
 Local
(UTC-6)
 Zulu
(UTC)
Morning civil twilight06:4712:47
Sunrise07:1813:18
Sunset16:5522:55
Evening civil twilight17:2523:25

Current date and time
Zulu (UTC)  24-Jan-2019 05:33:05
Local (UTC-6)  23-Jan-2019 23:33:05
 
METAR
KBUU 
14nm E 
240515Z AUTO 25003KT 10SM CLR M14/M15 A2983 RMK AO2 T11381153
K57C 
14nm NE 
240515Z AUTO 26004KT 10SM CLR M12/M13 A2982 RMK AO2 T11171127
KJVL 
18nm W 
240515Z AUTO 00000KT 7SM CLR M11/M11 A2985 RMK AO2
TAF
KENW 
30nm E 
240101Z 2401/2424 30009KT P6SM BKN018 FM240400 29008KT P6SM SCT020 FM241300 26007KT P6SM VCSH BKN050 FM241600 27012KT P6SM VCSH BKN018 FM241900 29014G22KT P6SM VCSH BKN020 FM242200 29016G25KT P6SM SCT035
KUES 
31nm NE 
240152Z 2402/2424 28006KT P6SM OVC021 FM240300 28006KT P6SM SCT024 FM241200 VRB04KT P6SM VCSH SCT008 BKN012 FM241700 28012KT P6SM VCSH OVC015 FM241800 29014G22KT P6SM BKN010 FM242200 29016G25KT P6SM SCT030
KRFD 
34nm SW 
240300Z 2403/2424 28008KT P6SM SCT025 FM240600 26006KT P6SM FEW035 FM241400 28011KT P6SM BKN015 FM241700 30015G25KT P6SM BKN015
KMKE 
36nm NE 
240257Z 2403/2506 31009KT P6SM BKN022 FM240430 29009KT P6SM SCT022 FM240900 27006KT P6SM SCT150 FM241500 27007KT P6SM VCSH BKN025 FM241700 29012G22KT P6SM VCSH BKN016 FM242200 29016G25KT P6SM SCT040 SCT070
NOTAMs
Click for the latest NOTAMs
NOTAMs are issued by the DoD/FAA and will open in a separate window not controlled by AirNav.

 

 
 

Would you like to see your business listed on this page?

 If your business provides an interesting product or service to pilots, flight crews, aircraft, or users of the Lake Lawn Airport, you should consider listing it here.  To start the listing process, click on the button below
 
Add a business
 

Other Pages about Lake Lawn Airport

Page from the Wisconsin airport directory (PDF)
 
Update a link
 
Copyright © AirNav, LLC. All rights reserved. Privacy Policy  Contact